Pipestone, MN

6:00 PM CDT on July 26, 2016 (GMT -0500)
Pipestone Municipal

Weather History for KPQN - July, 2013

Change the Weather History Date:

Monday, July 22, 2013

  Actual Average Record
Temperature  
Mean Temperature 72 °F -  
Max Temperature 82 °F 80 °F 93 °F (2012)
Min Temperature 62 °F 60 °F 46 °F (2000)
Cooling Degree Days 7    
Growing Degree Days 22 (Base 50)    
Moisture  
Dew Point 63 °F    
Average Humidity 70    
Maximum Humidity 94    
Minimum Humidity 42    
Precipitation  
Precipitation 0.17 in - - ()
Sea Level Pressure  
Sea Level Pressure 29.81 in    
Wind  
Wind Speed 8 mph (NW)    
Max Wind Speed 17 mph    
Max Gust Speed 28 mph    
Visibility 10 miles    
Events Rain , Thunderstorm    
Averages and records for this station are not official NWS values.
T = Trace of Precipitation, MM = Missing Value Source: NWS Daily Summary

Daily Weather History Graph

Daily Weather History Graph

Search for Another Location

Airport or City:

Trip Planner

Search our weather history database for the weather conditions in past years. The results will help you decide how hot, cold, wet, or windy it might be!

Date:

Astronomy

Jul. 22, 2013 Rise Set
Actual Time 6:03 AM CDT 8:59 PM CDT
Civil Twilight 5:29 AM CDT 9:33 PM CDT
Nautical Twilight 4:45 AM CDT 10:16 PM CDT
Astronomical Twilight 3:54 AM CDT 11:07 PM CDT
Moon 8:42 PM CDT (7/22) 6:03 AM CDT (7/22)
Length of Visible Light 16h 04m
Length of Day
14h 56m
Full, 100% of the Moon is Illuminated
Jul 22
Full
Jul 22
Full
Jul 29
Last Quarter
Aug 6
New
Aug 14
First Quarter

Hourly Weather History & Observations

Time (CDT) Temp. Heat Index Dew Point Humidity Pressure Visibility Wind Dir Wind Speed Gust Speed Precip Events Conditions
12:13 AM 71.6 °F - 66.2 °F 83% 29.81 in 10.0 mi South 5.8 mph - N/A   Clear
12:33 AM 71.6 °F - 66.2 °F 83% 29.78 in 10.0 mi South 8.1 mph - N/A   Clear
12:53 AM 71.6 °F - 66.2 °F 83% 29.77 in 10.0 mi South 8.1 mph - N/A   Clear
1:14 AM 71.6 °F - 66.2 °F 83% 29.78 in 10.0 mi South 5.8 mph - N/A   Clear
1:33 AM 69.8 °F - 66.2 °F 88% 29.78 in 10.0 mi South 4.6 mph - N/A   Clear
1:53 AM 69.8 °F - 66.2 °F 88% 29.79 in 7.0 mi Calm Calm - N/A   Clear
2:14 AM 68.0 °F - 66.2 °F 94% 29.78 in 7.0 mi South 4.6 mph - N/A   Clear
2:33 AM 68.0 °F - 66.2 °F 94% 29.78 in 10.0 mi SSW 5.8 mph - N/A   Clear
2:53 AM 68.0 °F - 66.2 °F 94% 29.78 in 10.0 mi SW 3.5 mph - N/A   Clear
3:13 AM 69.8 °F - 66.2 °F 88% 29.78 in 10.0 mi SSW 4.6 mph - N/A   Clear
3:33 AM 69.8 °F - 66.2 °F 88% 29.77 in 10.0 mi SSW 4.6 mph - N/A   Clear
3:53 AM 69.8 °F - 66.2 °F 88% 29.76 in 10.0 mi SSW 6.9 mph - N/A   Clear
4:13 AM 69.8 °F - 66.2 °F 88% 29.76 in 10.0 mi South 5.8 mph - N/A   Clear
4:33 AM 69.8 °F - 66.2 °F 88% 29.75 in 10.0 mi South 5.8 mph - N/A   Clear
4:54 AM 69.8 °F - 64.4 °F 83% 29.75 in 10.0 mi South 6.9 mph - N/A   Mostly Cloudy
5:13 AM 68.0 °F - 64.4 °F 88% 29.74 in 7.0 mi South 6.9 mph - N/A   Mostly Cloudy
5:33 AM 68.0 °F - 66.2 °F 94% 29.74 in 7.0 mi SSW 6.9 mph - N/A   Scattered Clouds
5:54 AM 68.0 °F - 66.2 °F 94% 29.73 in 7.0 mi SSW 6.9 mph - N/A   Clear
6:13 AM 69.8 °F - 66.2 °F 88% 29.73 in 7.0 mi SSW 6.9 mph - N/A   Clear
6:33 AM 69.8 °F - 66.2 °F 88% 29.77 in 7.0 mi NNW 4.6 mph - N/A   Clear
6:54 AM 73.4 °F - 64.4 °F 73% 29.80 in 10.0 mi NW 6.9 mph 27.6 mph N/A Thunderstorm Thunderstorm
7:13 AM 73.4 °F - 66.2 °F 78% 29.80 in 10.0 mi Calm Calm - N/A Rain , Thunderstorm Rain
7:33 AM 73.4 °F - 64.4 °F 73% 29.78 in 10.0 mi WSW 6.9 mph - 0.17 in Rain , Thunderstorm Thunderstorms and Rain
7:53 AM 71.6 °F - 64.4 °F 78% 29.78 in 10.0 mi SW 5.8 mph - 0.02 in Rain , Thunderstorm Heavy Thunderstorms and Rain
8:13 AM 69.8 °F - 64.4 °F 83% 29.76 in 10.0 mi SSW 6.9 mph - N/A Rain , Thunderstorm Light Thunderstorms and Rain
8:33 AM 71.6 °F - 64.4 °F 78% 29.77 in 10.0 mi West 5.8 mph - N/A Thunderstorm Scattered Clouds
8:53 AM 71.6 °F - 64.4 °F 78% 29.77 in 10.0 mi WSW 5.8 mph - N/A   Clear
9:13 AM 73.4 °F - 66.2 °F 78% 29.77 in 10.0 mi WSW 6.9 mph - N/A   Clear
9:33 AM 77.0 °F - 66.2 °F 69% 29.77 in 10.0 mi WSW 10.4 mph - N/A   Clear
9:53 AM 77.0 °F - 66.2 °F 69% 29.78 in 10.0 mi WSW 10.4 mph - N/A   Clear
10:13 AM 78.8 °F - 68.0 °F 69% 29.79 in 10.0 mi West 11.5 mph - N/A   Clear
10:33 AM 78.8 °F - 66.2 °F 65% 29.79 in 10.0 mi West 9.2 mph - N/A   Scattered Clouds
10:53 AM 78.8 °F - 66.2 °F 65% 29.79 in 10.0 mi West 10.4 mph - N/A   Scattered Clouds
11:13 AM 78.8 °F - 68.0 °F 69% 29.80 in 10.0 mi West 10.4 mph - N/A   Scattered Clouds
11:33 AM 78.8 °F - 66.2 °F 65% 29.81 in 10.0 mi NW 9.2 mph - N/A   Scattered Clouds
11:53 AM 78.8 °F - 66.2 °F 65% 29.81 in 10.0 mi NW 10.4 mph - N/A   Scattered Clouds
12:13 PM 78.8 °F - 66.2 °F 65% 29.80 in 10.0 mi NW 10.4 mph - N/A   Scattered Clouds
12:33 PM 80.6 °F 83.2 °F 68.0 °F 65% 29.80 in 10.0 mi NW 12.7 mph - N/A   Scattered Clouds
12:53 PM 80.6 °F 82.7 °F 66.2 °F 61% 29.81 in 10.0 mi NW 13.8 mph - N/A   Scattered Clouds
1:13 PM 80.6 °F 82.7 °F 66.2 °F 61% 29.81 in 10.0 mi NW 10.4 mph 17.3 mph N/A   Scattered Clouds
1:33 PM 80.6 °F 82.7 °F 66.2 °F 61% 29.81 in 10.0 mi North 11.5 mph 19.6 mph N/A   Scattered Clouds
1:53 PM 80.6 °F 82.3 °F 64.4 °F 58% 29.81 in 10.0 mi NNW 11.5 mph 16.1 mph N/A   Scattered Clouds
2:13 PM 82.4 °F 83.9 °F 64.4 °F 54% 29.81 in 10.0 mi NNW 10.4 mph 19.6 mph N/A   Scattered Clouds
2:33 PM 80.6 °F 81.8 °F 62.6 °F 54% 29.82 in 10.0 mi North 15.0 mph 24.2 mph N/A   Scattered Clouds
2:53 PM 80.6 °F 81.5 °F 60.8 °F 51% 29.82 in 10.0 mi NNW 16.1 mph 23.0 mph N/A   Clear
3:13 PM 80.6 °F 80.8 °F 57.2 °F 45% 29.83 in 10.0 mi NNW 17.3 mph - N/A   Clear
3:33 PM 80.6 °F 81.1 °F 59.0 °F 48% 29.83 in 10.0 mi NNW 11.5 mph 21.9 mph N/A   Clear
3:53 PM 80.6 °F 81.1 °F 59.0 °F 48% 29.83 in 10.0 mi NNW 10.4 mph 19.6 mph N/A   Clear
4:13 PM 80.6 °F 80.5 °F 55.4 °F 42% 29.83 in 10.0 mi NNW 11.5 mph - N/A   Clear
4:33 PM 80.6 °F 80.8 °F 57.2 °F 45% 29.83 in 10.0 mi NNW 12.7 mph 18.4 mph N/A   Clear
4:53 PM 80.6 °F 80.8 °F 57.2 °F 45% 29.83 in 10.0 mi NNW 12.7 mph 18.4 mph N/A   Clear
5:13 PM 80.6 °F 80.8 °F 57.2 °F 45% 29.84 in 10.0 mi NNW 11.5 mph - N/A   Clear
5:33 PM 78.8 °F - 57.2 °F 47% 29.84 in 10.0 mi NNW 13.8 mph 19.6 mph N/A   Clear
5:53 PM 80.6 °F 81.1 °F 59.0 °F 48% 29.84 in 10.0 mi NNW 12.7 mph 18.4 mph N/A   Clear
6:13 PM 78.8 °F - 57.2 °F 47% 29.84 in 10.0 mi NW 12.7 mph 23.0 mph N/A   Clear
6:33 PM 78.8 °F - 57.2 °F 47% 29.84 in 10.0 mi North 11.5 mph 20.7 mph N/A   Scattered Clouds
6:53 PM 78.8 °F - 57.2 °F 47% 29.84 in 10.0 mi North 10.4 mph 17.3 mph N/A   Scattered Clouds
7:13 PM 78.8 °F - 59.0 °F 51% 29.84 in 10.0 mi NNW 16.1 mph 19.6 mph N/A   Scattered Clouds
7:33 PM 77.0 °F - 60.8 °F 57% 29.85 in 10.0 mi North 6.9 mph - N/A   Scattered Clouds
7:53 PM 73.4 °F - 62.6 °F 69% 29.86 in 10.0 mi North 8.1 mph 18.4 mph N/A   Clear
8:13 PM 73.4 °F - 62.6 °F 69% 29.87 in 10.0 mi North 8.1 mph - N/A   Mostly Cloudy
8:33 PM 71.6 °F - 60.8 °F 69% 29.87 in 10.0 mi NNE 9.2 mph 18.4 mph N/A   Mostly Cloudy
8:53 PM 69.8 °F - 60.8 °F 73% 29.88 in 10.0 mi NNE 8.1 mph - N/A   Scattered Clouds
9:13 PM 69.8 °F - 60.8 °F 73% 29.88 in 10.0 mi NNE 5.8 mph - N/A   Clear
9:33 PM 68.0 °F - 59.0 °F 73% 29.90 in 10.0 mi NE 8.1 mph - N/A   Clear
9:53 PM 66.2 °F - 57.2 °F 73% 29.91 in 10.0 mi NE 6.9 mph - N/A   Clear
10:13 PM 66.2 °F - 57.2 °F 73% 29.92 in 10.0 mi NE 5.8 mph - N/A   Clear
10:33 PM 64.4 °F - 57.2 °F 77% 29.93 in 10.0 mi NNE 4.6 mph - N/A   Clear
10:53 PM 64.4 °F - 57.2 °F 77% 29.93 in 10.0 mi NE 4.6 mph - N/A   Clear
11:13 PM 62.6 °F - 57.2 °F 82% 29.93 in 10.0 mi NE 5.8 mph - N/A   Clear
11:33 PM 62.6 °F - 55.4 °F 77% 29.94 in 10.0 mi NE 4.6 mph - N/A   Clear
11:53 PM 62.6 °F - 55.4 °F 77% 29.94 in 10.0 mi NNE 3.5 mph - N/A   Clear